Location: Eisingen in Unterfranken
(49.7591°N, 9.8347°E)
Time: 07:55:46
(UTC+01:00)

Envisat - Pass Details

Date: 27 November 2022
Orbit: 763 x 765 km, 98.2° (Epoch: 04 February)

Event Time Altitude Azimuth Distance (km) Brightness Sun altitude
Rises 17:02:58 0° 213° (SSW) 3,220 7.4 -6.1°
Reaches altitude 10° 17:06:10 10° 235° (SW) 2,300 7.2 -6.6°
Maximum altitude 17:09:14 16° 272° (W) 1,919 6.1 -7.0°
Drops below altitude 10° 17:12:20 10° 310° (NW) 2,312 5.8 -7.5°
Sets 17:15:35 0° 332° (NNW) 3,245 6.3 -8.0°
